2022-058F (52790 NORAD) Tracking and Keplerian Element Data

This shows tracking and keplerian element data for the satellite.

Feedback or suggestion? Click here.




ElementValue
Catalog52790
Name2022-058F
Epoch Orbit1129
Epoch Day229.13762815
Epoch Year2022
RAAN266.766
Inclination50.0089
Eccentricity0.0014332
Argument of Perigee231.5091
Mean Anonmoly128.4554
Mean Motion14.8731012
Decay Rate1.204E-05
L11 52790U 22058F 22229.13762815 .00001204 00000+0 15772-3 0 9991
L22 52790 50.0089 266.7660 0014332 231.5091 128.4554 14.87310120 11293

Live tracking and technical data element details for 2022-058F (NORAD 52790). 2022-058F can be tracked NOW for your location showing map with azimuth and elevation plus other details from your city location.

Track the satellite on the map from your city or location and see movement details for azimuth, elevation, latitude, longitude, range, height, and movement on the map or in text.







IsCatalogInMostPopularTable: catalog: 52790, numindb: 3
Update: records affected: 1



GetName: 52790 2022-058F

Hit Count: updated at: Thu, 18 Aug 2022 19:12:24 GMT